This demonstration page uses our WeatherBlox Daily Observations layout. Learn more.

Left ArrowRight Arrow

Hourly Observations for January 27, 2016

Temp ( °F °C ) Dew Point ( °F °C ) Humidity (%) Winds ( mph kmh ) Pressure ( in mb ) Visibility ( mi km ) Precip ( " mm )
12:51 am 00:51 Clear 37 2.8 16 -8.9 42 42 E 8 13 30.27 1025 10 16 N/A
1:51 am 01:51 Clear 33 0.6 16 -8.9 49 49 E 7 11 30.28 1026 10 16 N/A
2:51 am 02:51 Clear 34 1.1 16 -8.9 48 48 ESE 8 13 30.29 1026 10 16 N/A
3:51 am 03:51 Clear 38 3.3 17 -8.3 43 43 SE 12 19 30.28 1026 10 16 N/A
4:51 am 04:51 Clear 34 1.1 17 -8.3 50 50 E 10 17 30.28 1026 10 16 N/A
5:51 am 05:51 Clear 36 2.2 18 -7.8 48 48 E 9 15 30.31 1027 10 16 N/A
6:51 am 06:51 Clear 34 1.1 18 -7.8 52 52 E 9 15 30.34 1027 10 16 N/A
7:51 am 07:51 Sunny 37 2.8 20 -6.7 50 50 E 6 9 30.37 1028 10 16 N/A
8:51 am 08:51 Sunny 42 5.6 21 -6.1 43 43 ESE 7 11 30.38 1029 10 16 N/A
9:51 am 09:51 Sunny 47 8.3 21 -6.1 36 36 ESE 10 17 30.38 1029 10 16 N/A
10:51 am 10:51 Sunny 49 9.4 23 -5 36 36 SE 10 17 30.38 1029 10 16 N/A
11:51 am 11:51 Sunny 51 10.6 21 -6.1 31 31 ESE 7 11 30.33 1027 10 16 N/A
12:51 pm 12:51 Sunny 54 12.2 19 -7.2 25 25 SSE 10 17 30.28 1025 10 16 N/A
1:51 pm 13:51 Sunny 56 13.3 19 -7.2 24 24 VRB 6 9 30.25 1024 10 16 N/A
2:51 pm 14:51 Sunny 57 13.9 19 -7.2 23 23 SE 3 6 30.23 1024 10 16 N/A
3:51 pm 15:51 Sunny 58 14.4 18 -7.8 21 21 SSE 5 7 30.21 1023 10 16 N/A
4:51 pm 16:51 Sunny 57 13.9 17 -8.3 21 21 N N/A 30.20 1023 10 16 N/A
5:51 pm 17:51 Clear 53 11.7 18 -7.8 25 25 S 3 6 30.21 1023 10 16 N/A
6:51 pm 18:51 Clear 43 6.1 19 -7.2 38 38 N N/A 30.25 1025 10 16 N/A
7:51 pm 19:51 Clear 44 6.7 19 -7.2 37 37 NNE 7 11 30.25 1025 10 16 N/A
8:51 pm 20:51 Clear 42 5.6 21 -6.1 43 43 ESE 7 11 30.25 1024 10 16 N/A
9:51 pm 21:51 Clear 40 4.4 21 -6.1 47 47 SE 6 9 30.24 1024 10 16 N/A
10:51 pm 22:51 Clear 39 3.9 20 -6.7 46 46 N N/A 30.25 1024 10 16 N/A
11:51 pm 23:51 Clear 39 3.9 21 -6.1 48 48 N N/A 30.24 1024 10 16 N/A

Powered by AerisWeather